CZ-4C DEB

基本信息
目录编号:
55837
目录名称:
CZ-4C DEB
国际标识:
2023-030B
轨道中心:
EARTH
物体状态:
在轨
发射日期:
2023-03-09 UTC
轨道信息
数据来源: 国际轨道数据
星历时间: 2026-07-14T00:01:53+0800
半长轴: 7254.194km
偏心率: 0.0004573
轨道倾角: 98.979°
近地点辐角: 105.994°
升交点赤经: 207.111°
平近点角: 254.173°
近地点: 872.739km
远地点: 879.375km
周期: 102.481分钟
每日圈数: 14.051383
详细信息
发射场:
TSC
轨道高度:
LEO
数据来源:
AOE Integration Group
参考系:
TEME
时间系统:
UTC
历元类型:
SGP4
2D轨道图
3D轨道图
轨道高度分析图
轨道倾角分析图
轨道综合分析图
查看轨道综合分析图